STARLINK-3757 (52539 NORAD) Tracking and Keplerian Element Data

This shows tracking and keplerian element data for the satellite.

Feedback or suggestion? Click here.




ElementValue
Catalog52539
NameSTARLINK-3757
Epoch Orbit130
Epoch Day167.08334491
Epoch Year2022
RAAN130.3481
Inclination53.2166
Eccentricity0.00013
Argument of Perigee55.8875
Mean Anonmoly25.8719
Mean Motion15.49972256
Decay Rate-0.00115843
L11 52539U 22051G 22167.08334491 -.00115843 00000+0 -20570-2 0 9993
L22 52539 53.2166 130.3481 0001300 55.8875 25.8719 15.49972256 1307

Live tracking and technical data element details for STARLINK-3757 (NORAD 52539). STARLINK-3757 can be tracked NOW for your location showing map with azimuth and elevation plus other details from your city location.

Track the satellite on the map from your city or location and see movement details for azimuth, elevation, latitude, longitude, range, height, and movement on the map or in text.







IsCatalogInMostPopularTable: catalog: 52539, numindb: 2
Update: records affected: 1



GetName: 52539 STARLINK-3757

Hit Count: updated at: Sat, 25 Jun 2022 05:18:27 GMT